TimeEST,TemperatureF,Dew PointF,Humidity,Sea Level PressureIn,VisibilityMPH,Wind Direction,Wind SpeedMPH,Gust SpeedMPH,PrecipitationIn,Events,Conditions,WindDirDegrees,DateUTC
12:52 AM,36.0,33.1,89,29.65,10.0,NNW,4.6,-,N/A,,Overcast,340,2013-03-02 05:52:00
1:27 AM,35.6,33.8,93,29.64,10.0,NW,5.8,-,N/A,,Overcast,320,2013-03-02 06:27:00
1:52 AM,36.0,32.0,86,29.65,10.0,NW,5.8,-,N/A,,Overcast,320,2013-03-02 06:52:00
2:52 AM,37.0,30.0,76,29.64,10.0,NW,5.8,-,N/A,,Overcast,310,2013-03-02 07:52:00
3:52 AM,36.0,28.9,76,29.65,10.0,Variable,4.6,-,N/A,,Overcast,0,2013-03-02 08:52:00
4:52 AM,36.0,28.9,76,29.65,10.0,WNW,6.9,-,N/A,,Overcast,300,2013-03-02 09:52:00
5:52 AM,36.0,28.9,76,29.66,10.0,NW,5.8,-,N/A,,Overcast,320,2013-03-02 10:52:00
6:52 AM,36.0,28.0,73,29.67,10.0,NW,5.8,-,N/A,,Overcast,320,2013-03-02 11:52:00
7:52 AM,36.0,28.0,73,29.67,10.0,Variable,5.8,-,N/A,,Overcast,0,2013-03-02 12:52:00
8:52 AM,37.0,28.0,70,29.67,10.0,Variable,6.9,-,N/A,,Overcast,0,2013-03-02 13:52:00
9:52 AM,37.9,28.0,68,29.67,10.0,WNW,9.2,-,N/A,,Overcast,300,2013-03-02 14:52:00
10:23 AM,39.2,28.4,65,29.66,10.0,Variable,6.9,-,N/A,,Scattered Clouds,0,2013-03-02 15:23:00
10:52 AM,39.0,27.0,62,29.67,10.0,NW,10.4,17.3,N/A,,Partly Cloudy,310,2013-03-02 15:52:00
11:52 AM,42.1,28.0,58,29.65,10.0,Variable,5.8,-,N/A,,Clear,0,2013-03-02 16:52:00
12:52 PM,42.1,27.0,55,29.64,10.0,NW,8.1,-,N/A,,Clear,310,2013-03-02 17:52:00
1:52 PM,43.0,26.1,51,29.65,10.0,Variable,6.9,-,N/A,,Clear,0,2013-03-02 18:52:00
2:52 PM,39.9,30.0,68,29.65,10.0,SSW,5.8,-,N/A,,Overcast,210,2013-03-02 19:52:00
3:52 PM,39.0,30.0,70,29.64,10.0,SW,5.8,-,N/A,,Overcast,230,2013-03-02 20:52:00
4:52 PM,39.0,28.0,65,29.64,10.0,WNW,3.5,-,N/A,,Overcast,290,2013-03-02 21:52:00
5:52 PM,37.9,28.0,68,29.65,10.0,Calm,Calm,-,N/A,,Overcast,0,2013-03-02 22:52:00
6:52 PM,37.9,28.0,68,29.66,10.0,Calm,Calm,-,N/A,,Overcast,0,2013-03-02 23:52:00
7:52 PM,37.9,28.9,70,29.66,10.0,Calm,Calm,-,N/A,,Overcast,0,2013-03-03 00:52:00
8:52 PM,37.9,30.0,73,29.66,10.0,WSW,3.5,-,N/A,,Overcast,250,2013-03-03 01:52:00
9:52 PM,37.0,30.0,76,29.65,10.0,Calm,Calm,-,N/A,,Overcast,0,2013-03-03 02:52:00
10:52 PM,37.0,30.9,79,29.63,10.0,Calm,Calm,-,N/A,,Overcast,0,2013-03-03 03:52:00